EZS129 LOWG-LSZH

Flight info

Callsign EZS129
Flight time N/A
Altitude 30000
Route ABIRI DCT ERKIR L608 KPT L856 NEGRA
Aircraft A320/M-SDE3FGHIRWY/LB1

Departure

Time N/A
Airport Graz Airport (LOWG)

Arrival

Time 2026-05-04 10:45
Airport Zürich Airport (LSZH)
Time Latitude Longitude Altitude Speed Heading
2026-05-04 09:54 46.86226 14.60771 22405 ft 422 kts 290°
2026-05-04 09:55 46.87324 14.56778 22957 ft 424 kts 290°
2026-05-04 09:55 46.88422 14.52766 23480 ft 427 kts 291°
2026-05-04 09:55 46.89523 14.48720 23966 ft 429 kts 290°
2026-05-04 09:55 46.90629 14.44651 24378 ft 432 kts 290°
2026-05-04 09:56 46.91739 14.40566 24851 ft 433 kts 290°
2026-05-04 09:56 46.92857 14.36465 25305 ft 435 kts 291°
2026-05-04 09:56 46.93978 14.32353 25774 ft 436 kts 291°
2026-05-04 09:56 46.95101 14.28219 26172 ft 438 kts 291°
2026-05-04 09:57 46.96224 14.24078 26590 ft 439 kts 291°
2026-05-04 09:57 46.97352 14.19916 26979 ft 441 kts 291°
2026-05-04 09:57 46.98481 14.15726 27323 ft 444 kts 291°
2026-05-04 09:57 46.99614 14.11504 27691 ft 446 kts 291°
2026-05-04 09:58 47.00753 14.07269 28047 ft 448 kts 291°
2026-05-04 09:58 47.01899 14.03006 28403 ft 450 kts 291°
2026-05-04 09:58 47.03048 13.98724 28751 ft 453 kts 291°
2026-05-04 10:00 47.10974 13.68943 30092 ft 443 kts 291°
2026-05-04 10:00 47.12088 13.64716 30094 ft 444 kts 291°
2026-05-04 10:04 47.27535 13.05336 30042 ft 444 kts 290°
2026-05-04 10:04 47.29711 12.96836 30044 ft 444 kts 290°
2026-05-04 10:05 47.31889 12.88330 30049 ft 444 kts 289°
2026-05-04 10:05 47.34070 12.79823 30037 ft 443 kts 290°
2026-05-04 10:06 47.36234 12.71313 30032 ft 443 kts 289°
2026-05-04 10:06 47.38383 12.62806 30028 ft 443 kts 289°
2026-05-04 10:08 47.45849 12.32984 30021 ft 442 kts 289°
2026-05-04 10:08 47.47969 12.24467 30016 ft 442 kts 289°
2026-05-04 10:09 47.50080 12.15937 30009 ft 442 kts 289°
2026-05-04 10:09 47.52166 12.07450 30006 ft 442 kts 289°
2026-05-04 10:10 47.54072 11.98818 30005 ft 441 kts 281°
2026-05-04 10:10 47.55315 11.89936 30003 ft 441 kts 281°
2026-05-04 10:11 47.56566 11.81048 30002 ft 441 kts 281°
2026-05-04 10:11 47.57816 11.72165 30010 ft 440 kts 280°
2026-05-04 10:12 47.59050 11.63285 30006 ft 440 kts 280°
2026-05-04 10:12 47.60266 11.54384 29999 ft 440 kts 280°
2026-05-04 10:13 47.61477 11.45493 30000 ft 441 kts 280°
2026-05-04 10:13 47.62674 11.36575 30007 ft 441 kts 279°
2026-05-04 10:14 47.63769 11.27633 30015 ft 441 kts 278°
2026-05-04 10:16 47.68022 10.91863 30037 ft 439 kts 278°
2026-05-04 10:16 47.69068 10.82946 30034 ft 438 kts 278°
2026-05-04 10:17 47.70109 10.74035 30033 ft 438 kts 277°
2026-05-04 10:19 47.74181 10.38465 30017 ft 436 kts 277°
2026-05-04 10:19 47.74460 10.29534 30020 ft 433 kts 266°
2026-05-04 10:20 47.74260 10.20601 30017 ft 433 kts 266°
2026-05-04 10:20 47.74055 10.11655 30025 ft 433 kts 265°
2026-05-04 10:21 47.73836 10.02708 30011 ft 434 kts 265°
2026-05-04 10:21 47.73614 9.93818 30015 ft 434 kts 265°
2026-05-04 10:22 47.73391 9.84850 29779 ft 435 kts 265°
2026-05-04 10:22 47.73278 9.80352 29495 ft 436 kts 265°
2026-05-04 10:22 47.73162 9.75853 29215 ft 437 kts 265°
2026-05-04 10:23 47.73041 9.71343 28940 ft 438 kts 265°
2026-05-04 10:23 47.72916 9.66813 28662 ft 439 kts 265°
2026-05-04 10:25 47.69149 9.37338 21194 ft 434 kts 234°
2026-05-04 10:25 47.67342 9.33806 20342 ft 427 kts 229°
2026-05-04 10:25 47.65469 9.30402 19546 ft 423 kts 229°
2026-05-04 10:25 47.63721 9.26921 18767 ft 420 kts 235°
2026-05-04 10:26 47.62331 9.23136 18019 ft 417 kts 244°
2026-05-04 10:26 47.61331 9.19125 17212 ft 414 kts 252°
2026-05-04 10:26 47.60725 9.14959 16441 ft 411 kts 260°
2026-05-04 10:26 47.60491 9.10759 15698 ft 408 kts 267°
2026-05-04 10:27 47.60645 9.06574 14985 ft 406 kts 275°
2026-05-04 10:27 47.61221 9.02496 14302 ft 403 kts 284°
2026-05-04 10:27 47.62222 8.98628 13605 ft 401 kts 293°
2026-05-04 10:27 47.63618 8.95065 12835 ft 400 kts 302°
2026-05-04 10:28 47.65362 8.91868 12051 ft 399 kts 311°
2026-05-04 10:28 47.67315 8.88952 11254 ft 398 kts 313°
2026-05-04 10:28 47.69259 8.86048 10459 ft 396 kts 313°
2026-05-04 10:28 47.71185 8.83142 9836 ft 390 kts 311°
2026-05-04 10:29 47.72820 8.80091 9700 ft 367 kts 301°
2026-05-04 10:29 47.74028 8.76880 9563 ft 347 kts 292°
2026-05-04 10:29 47.74845 8.73641 9437 ft 321 kts 283°
2026-05-04 10:29 47.75311 8.70550 9296 ft 295 kts 276°
2026-05-04 10:30 47.75487 8.67555 9166 ft 288 kts 268°
2026-05-04 10:30 47.75398 8.64607 9036 ft 285 kts 261°
2026-05-04 10:30 47.75059 8.61726 8896 ft 283 kts 254°
2026-05-04 10:30 47.74473 8.58944 8777 ft 281 kts 245°
2026-05-04 10:31 47.73304 8.56710 8643 ft 275 kts 212°
2026-05-04 10:31 47.71548 8.55853 8514 ft 272 kts 179°
2026-05-04 10:32 47.63716 8.67374 7365 ft 271 kts 131°
2026-05-04 10:33 47.62492 8.69491 7242 ft 270 kts 130°
2026-05-04 10:33 47.61289 8.71627 7111 ft 270 kts 129°
2026-05-04 10:33 47.60099 8.73775 6981 ft 269 kts 128°
2026-05-04 10:33 47.58923 8.75924 6984 ft 268 kts 128°
2026-05-04 10:34 47.57749 8.78080 7012 ft 269 kts 126°
2026-05-04 10:34 47.56727 8.80388 7003 ft 268 kts 118°
2026-05-04 10:34 47.55932 8.82895 6945 ft 269 kts 111°
2026-05-04 10:34 47.55388 8.85527 6522 ft 267 kts 102°
2026-05-04 10:35 47.55109 8.88238 6107 ft 266 kts 95°
2026-05-04 10:35 47.54919 8.90946 5986 ft 266 kts 96°
2026-05-04 10:35 47.54718 8.93668 5854 ft 266 kts 96°
2026-05-04 10:35 47.54514 8.96390 5724 ft 266 kts 96°
2026-05-04 10:36 47.54310 8.99110 5590 ft 266 kts 96°
2026-05-04 10:36 47.53887 9.01758 5455 ft 266 kts 114°
2026-05-04 10:36 47.52816 9.03974 5327 ft 267 kts 137°
2026-05-04 10:36 47.51228 9.05401 5199 ft 270 kts 159°
2026-05-04 10:37 47.49388 9.05797 5070 ft 265 kts 182°
2026-05-04 10:37 47.47596 9.05517 4937 ft 252 kts 185°
2026-05-04 10:37 47.45887 9.05235 4818 ft 242 kts 185°
2026-05-04 10:37 47.44269 9.04856 4811 ft 231 kts 198°
2026-05-04 10:39 47.43050 8.92826 4798 ft 201 kts 277°
2026-05-04 10:39 47.43199 8.90810 4800 ft 199 kts 278°
2026-05-04 10:39 47.43352 8.88757 4809 ft 199 kts 278°
2026-05-04 10:40 47.43501 8.86748 4812 ft 200 kts 277°
2026-05-04 10:40 47.43653 8.84703 4808 ft 200 kts 277°
2026-05-04 10:40 47.43801 8.82679 4810 ft 198 kts 277°
2026-05-04 10:40 47.43950 8.80655 4777 ft 200 kts 277°
2026-05-04 10:41 47.44096 8.78651 4584 ft 191 kts 277°
2026-05-04 10:41 47.44237 8.76733 4286 ft 186 kts 278°
2026-05-04 10:41 47.44371 8.74903 4041 ft 174 kts 278°
2026-05-04 10:41 47.44495 8.73187 3825 ft 160 kts 278°
2026-05-04 10:42 47.44610 8.71595 3580 ft 152 kts 279°
2026-05-04 10:42 47.44720 8.70085 3372 ft 144 kts 279°
2026-05-04 10:42 47.44826 8.68634 3154 ft 141 kts 280°
2026-05-04 10:42 47.44930 8.67200 2928 ft 138 kts 280°
2026-05-04 10:43 47.45033 8.65785 2739 ft 138 kts 281°
2026-05-04 10:44 47.45745 8.55890 1399 ft 123 kts 276°
2026-05-04 10:45 47.45797 8.55076 1401 ft 43 kts 274°
2026-05-04 10:45 47.45836 8.54827 1399 ft 21 kts 327°
2026-05-04 10:45 47.45968 8.54725 1400 ft 23 kts 330°
2026-05-04 10:45 47.46074 8.54720 1398 ft 17 kts 87°
2026-05-04 10:46 47.46035 8.54825 1402 ft 0 kts 129°
2026-05-04 10:46 47.46033 8.54828 1404 ft 2 kts 129°
2026-05-04 10:46 47.46013 8.54877 1401 ft 9 kts 113°
2026-05-04 10:47 47.46003 8.55005 1394 ft 16 kts 84°
2026-05-04 10:47 47.46043 8.55096 1397 ft 7 kts 52°
2026-05-04 10:47 47.46053 8.55120 1396 ft 1 kts 65°
2026-05-04 10:47 47.46049 8.55159 1397 ft 0 kts 115°
2026-05-04 10:49 47.46098 8.55128 1399 ft 1 kts 65°
2026-05-04 10:49 47.46101 8.55135 1404 ft 0 kts 65°